Meridian, MS

1:54 AM CDT on October 22, 2019 (GMT -0500)
Key

Weather History for KMEI - August, 2019

Change the Weather History Date:

Friday, August 2, 2019

  Actual Average Record
Temperature  
Mean Temperature 81 °F 81 °F  
Max Temperature 89 °F 92 °F 102 °F (2010)
Min Temperature 72 °F 70 °F 60 °F (1965)
Degree Days  
Heating Degree Days 0 0  
Month to date heating degree days 0 0  
Since 1 June heating degree days 0 0  
Since 1 July heating degree days 0 0  
Cooling Degree Days 16 16  
Month to date cooling degree days 35 32  
Year to date cooling degree days 1550 1179  
Since 1 June cooling degree days 1054 896  
Growing Degree Days 30 (Base 50)    
Moisture  
Dew Point 71 °F    
Average Humidity 76    
Maximum Humidity 93    
Minimum Humidity 59    
Precipitation  
Precipitation 0.75 in 0.15 in 1.85 in (1908)
Month to date precipitation 2.05 0.30  
Year to date precipitation 40.63 35.27  
Sea Level Pressure  
Sea Level Pressure 29.98 in    
Wind  
Wind Speed 4 mph (NW)    
Max Wind Speed 24 mph    
Max Gust Speed 28 mph    
Visibility 8 miles    
Events Rain , Thunderstorm    
T = Trace of Precipitation, MM = Missing Value Source: NWS Daily Summary

Daily Weather History Graph

Daily Weather History Graph

Search for Another Location

Airport or City:

Astronomy

Aug. 02, 2019 Rise Set
Actual Time 6:10 AM CDT 7:51 PM CDT
Civil Twilight 5:43 AM CDT 8:18 PM CDT
Nautical Twilight 5:11 AM CDT 8:50 PM CDT
Astronomical Twilight 4:37 AM CDT 9:24 PM CDT
Moon 7:46 AM CDT (8/2) 9:25 PM CDT (8/2)
Length of Visible Light 14h 34m
Length of Day
13h 41m
Waxing Crescent, 4% of the Moon is Illuminated
Aug 2
Waxing Crescent
Aug 7
First Quarter
Aug 15
Full
Aug 23
Last Quarter
Aug 30
New

Hourly Weather History & Observations

Time (CDT) Temp. Heat Index Dew Point Humidity Pressure Visibility Wind Dir Wind Speed Gust Speed Precip Events Conditions
12:58 AM 75.0 °F - 72.0 °F 90% 29.99 in 10.0 mi Calm Calm - N/A   Clear
1:58 AM 75.9 °F - 71.1 °F 85% 29.99 in 10.0 mi Calm Calm - N/A   Clear
2:58 AM 75.0 °F - 71.1 °F 87% 29.99 in 10.0 mi Calm Calm - N/A   Clear
3:58 AM 73.9 °F - 71.1 °F 91% 29.97 in 10.0 mi Calm Calm - N/A   Clear
4:58 AM 73.0 °F - 70.0 °F 90% 29.97 in 10.0 mi Calm Calm - N/A   Clear
5:58 AM 72.0 °F - 70.0 °F 93% 29.99 in 10.0 mi North 3.5 mph - N/A   Clear
6:58 AM 73.0 °F - 70.0 °F 90% 29.99 in 10.0 mi Calm Calm - N/A   Clear
7:58 AM 77.0 °F - 71.1 °F 82% 30.00 in 10.0 mi NE 3.5 mph - N/A   Clear
8:58 AM 82.0 °F 86.3 °F 71.1 °F 69% 30.01 in 10.0 mi Variable 3.5 mph - N/A   Clear
9:58 AM 84.0 °F 89.0 °F 71.1 °F 65% 30.01 in 10.0 mi ENE 4.6 mph - N/A   Partly Cloudy
10:58 AM 87.1 °F 93.6 °F 72.0 °F 61% 30.02 in 10.0 mi Variable 3.5 mph - N/A   Partly Cloudy
11:58 AM 87.1 °F 93.6 °F 72.0 °F 61% 30.01 in 10.0 mi Calm Calm - N/A   Mostly Cloudy
12:48 PM 79.0 °F - 71.1 °F 77% 30.02 in 1.8 mi North 16.1 mph 27.6 mph 0.01 in Rain Heavy Rain
12:58 PM 78.1 °F - 69.1 °F 74% 30.00 in 0.5 mi Calm Calm - 0.32 in Rain Heavy Rain
1:06 PM 79.0 °F - 69.1 °F 72% 30.01 in 1.0 mi WNW 3.5 mph - 0.11 in Rain Heavy Rain
1:09 PM 79.0 °F - 70.0 °F 74% 30.00 in 2.0 mi SW 6.9 mph - 0.11 in Rain Rain
1:17 PM 79.0 °F - 71.1 °F 77% 30.00 in 9.0 mi Calm Calm - 0.11 in Rain Light Rain
1:58 PM 86.0 °F 93.0 °F 73.0 °F 65% 29.97 in 10.0 mi Variable 5.8 mph - 0.11 in   Clear
2:56 PM 87.8 °F 95.6 °F 73.4 °F 62% 29.96 in 10.0 mi East 6.9 mph - N/A   Mostly Cloudy
2:58 PM 87.1 °F 94.5 °F 73.0 °F 63% 29.94 in 10.0 mi East 8.1 mph - N/A   Mostly Cloudy
3:09 PM 84.9 °F 91.4 °F 73.0 °F 67% 29.95 in 10.0 mi ESE 4.6 mph - N/A Thunderstorm Mostly Cloudy
3:30 PM 86.0 °F 93.8 °F 73.9 °F 67% 29.95 in 10.0 mi ESE 5.8 mph - N/A   Mostly Cloudy
3:58 PM 84.0 °F 91.9 °F 75.0 °F 74% 29.92 in 10.0 mi South 6.9 mph - N/A   Partly Cloudy
4:58 PM 84.0 °F 89.6 °F 72.0 °F 67% 29.91 in 10.0 mi SW 5.8 mph - N/A   Clear
5:58 PM 86.0 °F 93.8 °F 73.9 °F 67% 29.92 in 10.0 mi SSW 8.1 mph - N/A   Mostly Cloudy
6:09 PM 80.1 °F 84.2 °F 73.0 °F 79% 29.94 in 2.0 mi West 20.7 mph 27.6 mph 0.03 in Rain , Thunderstorm Heavy Thunderstorms and Rain
6:16 PM 75.9 °F - 71.1 °F 85% 29.94 in 1.0 mi West 18.4 mph 27.6 mph 0.10 in Rain , Thunderstorm Heavy Thunderstorms and Rain
6:20 PM 75.9 °F - 71.1 °F 85% 29.95 in 2.0 mi WSW 9.2 mph 27.6 mph 0.10 in Rain , Thunderstorm Light Thunderstorms and Rain
6:58 PM 75.0 °F - 70.0 °F 84% 29.94 in 5.0 mi North 10.4 mph - 0.30 in Rain , Thunderstorm Light Thunderstorms and Rain
7:48 PM 73.9 °F - 71.1 °F 91% 29.97 in 10.0 mi Calm Calm - 0.02 in   Mostly Cloudy
7:50 PM 73.9 °F - 71.1 °F 91% 29.97 in 10.0 mi NW 3.5 mph - 0.02 in Thunderstorm Mostly Cloudy
7:58 PM 73.9 °F - 71.1 °F 91% 29.96 in 10.0 mi SW 4.6 mph - 0.02 in Thunderstorm Overcast
8:11 PM 75.0 °F - 71.1 °F 87% 29.98 in 10.0 mi South 4.6 mph - N/A   Scattered Clouds
8:58 PM 73.9 °F - 71.1 °F 91% 29.96 in 10.0 mi NNW 3.5 mph - N/A   Partly Cloudy
9:05 PM 73.9 °F - 71.1 °F 91% 29.98 in 10.0 mi Calm Calm - N/A Thunderstorm Partly Cloudy
9:21 PM 75.0 °F - 72.0 °F 90% 29.99 in 10.0 mi NNE 4.6 mph - N/A   Scattered Clouds
10:58 PM 73.9 °F - 72.0 °F 93% 29.97 in 8.0 mi North 3.5 mph - 0.00 in   Clear
11:25 PM 73.9 °F - 72.0 °F 93% 29.98 in 7.0 mi North 4.6 mph - N/A   Scattered Clouds
11:35 PM 73.9 °F - 72.0 °F 93% 29.98 in 6.0 mi NW 3.5 mph - N/A   Mostly Cloudy
11:58 PM 73.9 °F - 72.0 °F 93% 29.97 in 6.0 mi WSW 3.5 mph - N/A   Overcast